User: anonymous   Login
Location: Pine Mountain Observatory
(43.7910°N, 120.9377°W)
Time: 10:30:18
(UTC-07:00)
Language:

Meteor 2-19 Rocket - Orbit

View from above orbital plane
View from above orbital plane
View from above satellite
View from above satellite

Ground track
Ground track

The orbit data is extracted from the following two-line orbital elements,

1 20671U 90057B   15185.71617824  .00000022  00000-0  60878-5 0  9991
2 20671 082.5455 219.2269 0015760 156.5310 342.0443 13.84591897264331
Epoch (UTC): 04 July 2015 17:11:17
Eccentricity: 0.0015760
inclination: 82.5455°
perigee height: 936 km
apogee height: 959 km
right ascension of ascending node: 219.2269°
argument of perigee: 156.5310°
revolutions per day: 13.84591897
mean anomaly at epoch: 342.0443°
orbit number at epoch: 26433

The dashed part of the orbit path shows where the satellite is in the earth's shadow,  

DLR